Location: Bathurst
(33.4193°S, 149.5775°E)
Time: 09:19:07
(UTC+10:00)

Vanguard 1 Rocket - Pass Details

Date: 21 June 2021
Orbit: 650 x 4226 km, 34.3° (Epoch: 02 August)

Event Time Altitude Azimuth Distance (km) Brightness Sun altitude
Rises 12:37:53 0° 260° (W) 6,612 11.8 32.6°
Reaches altitude 10° 12:43:05 10° 260° (W) 5,011 11.3 32.4°
Maximum altitude 12:55:35 84° 346° (NNW) 1,382 9.0 31.8°
Drops below altitude 10° 13:01:55 10° 73° (ENE) 2,675 9.9 31.5°
Sets 13:03:55 0° 74° (ENE) 3,410 10.4 31.3°
